• In Austria
  • List of Countries
  • For 7 days
  • Water Temperature
  • Satellite Maps
  • Weather Map
  • News
  • Weather Widgets
  • user-avatar
    Login

    Hourly Weather Zhejiang

    Today, 17 October, Wednesday

    Time Temperature Precipitation Wind Pressure Humidity
    00:00 +16°C° 0 mm 1 mps 762 mmHg 84%
    01:00 +16°C° 0 mm 1 mps 762 mmHg 84%
    02:00 +16°C° 0 mm 1 mps 762 mmHg 86%
    03:00 +15°C° 0 mm 1 mps 762 mmHg 86%
    04:00 +15°C° 0 mm 1 mps 762 mmHg 87%
    05:00 +15°C° 0 mm 1 mps 762 mmHg 87%
    06:00 +16°C° 0 mm 1 mps 762 mmHg 83%
    07:00 +18°C° 0 mm 1 mps 762 mmHg 79%
    08:00 +19°C° 0 mm 1 mps 762 mmHg 72%
    09:00 +21°C° 0 mm 1 mps 762 mmHg 64%
    10:00 +22°C° 0 mm 1 mps 762 mmHg 56%
    11:00 +23°C° 0 mm 2 mps 762 mmHg 48%
    12:00 +24°C° 0 mm 2 mps 762 mmHg 46%
    13:00 +24°C° 0 mm 2 mps 761 mmHg 44%
    14:00 +25°C° 0 mm 2 mps 761 mmHg 41%
    15:00 +24°C° 0 mm 2 mps 761 mmHg 46%
    16:00 +23°C° 0 mm 2 mps 761 mmHg 50%
    17:00 +22°C° 0 mm 1 mps 761 mmHg 55%
    18:00 +20°C° 0 mm 1 mps 761 mmHg 57%
    19:00 +19°C° 0 mm 1 mps 762 mmHg 58%
    20:00 +16°C° 0 mm 0 mps 762 mmHg 60%
    21:00 +16°C° 0 mm 0 mps 762 mmHg 62%
    22:00 +16°C° 0 mm 0 mps 762 mmHg 63%
    23:00 +15°C° 0 mm 0 mps 762 mmHg 65%

    Tomorrow, 18 October, Thursday

    Time Temperature Precipitation Wind Pressure Humidity
    00:00 +15°C° 0 mm 0 mps 763 mmHg 66%
    01:00 +15°C° 0 mm 0 mps 763 mmHg 67%
    02:00 +16°C° 0 mm 1 mps 763 mmHg 69%
    03:00 +15°C° 0 mm 1 mps 763 mmHg 71%
    04:00 +15°C° 0 mm 1 mps 763 mmHg 74%
    05:00 +14°C° 0 mm 1 mps 763 mmHg 76%
    06:00 +16°C° 0 mm 1 mps 764 mmHg 75%
    07:00 +17°C° 0 mm 2 mps 764 mmHg 73%
    08:00 +18°C° 0 mm 2 mps 765 mmHg 71%
    09:00 +19°C° 0.1 mm 2 mps 765 mmHg 67%
    10:00 +20°C° 0.1 mm 3 mps 765 mmHg 62%
    11:00 +21°C° 0.1 mm 3 mps 765 mmHg 58%
    12:00 +22°C° 0 mm 3 mps 765 mmHg 54%
    13:00 +22°C° 0 mm 3 mps 764 mmHg 51%
    14:00 +24°C° 0 mm 3 mps 764 mmHg 47%
    15:00 +22°C° 0 mm 3 mps 764 mmHg 50%
    16:00 +20°C° 0 mm 3 mps 764 mmHg 52%
    17:00 +19°C° 0 mm 2 mps 764 mmHg 54%
    18:00 +18°C° 0 mm 2 mps 765 mmHg 55%
    19:00 +17°C° 0 mm 2 mps 765 mmHg 56%
    20:00 +16°C° 0 mm 2 mps 766 mmHg 57%
    21:00 +16°C° 0 mm 2 mps 766 mmHg 59%
    22:00 +15°C° 0 mm 2 mps 766 mmHg 62%
    23:00 +15°C° 0 mm 2 mps 767 mmHg 64%

    Day after tomorrow, 19 October, Friday

    Time Temperature Precipitation Wind Pressure Humidity
    00:00 +14°C° 0 mm 2 mps 767 mmHg 64%
    01:00 +14°C° 0 mm 1 mps 767 mmHg 64%
    02:00 +14°C° 0 mm 1 mps 767 mmHg 64%
    03:00 +14°C° 0 mm 1 mps 767 mmHg 65%
    04:00 +13°C° 0 mm 1 mps 767 mmHg 66%
    05:00 +13°C° 0 mm 1 mps 767 mmHg 67%
    06:00 +14°C° 0 mm 1 mps 767 mmHg 64%
    07:00 +15°C° 0 mm 1 mps 767 mmHg 62%
    08:00 +16°C° 0 mm 1 mps 768 mmHg 59%
    09:00 +18°C° 0 mm 2 mps 768 mmHg 54%
    10:00 +19°C° 0 mm 2 mps 768 mmHg 49%
    11:00 +20°C° 0 mm 2 mps 767 mmHg 44%
    12:00 +21°C° 0 mm 2 mps 767 mmHg 43%
    13:00 +21°C° 0 mm 2 mps 766 mmHg 42%
    14:00 +23°C° 0 mm 2 mps 766 mmHg 40%
    15:00 +21°C° 0 mm 2 mps 765 mmHg 46%
    16:00 +20°C° 0 mm 2 mps 765 mmHg 52%
    17:00 +19°C° 0 mm 2 mps 765 mmHg 58%
    18:00 +18°C° 0 mm 2 mps 766 mmHg 62%
    19:00 +17°C° 0 mm 2 mps 766 mmHg 65%
    20:00 +18°C° 0 mm 1 mps 767 mmHg 68%
    21:00 +16°C° 0 mm 1 mps 767 mmHg 69%
    22:00 +16°C° 0 mm 1 mps 767 mmHg 70%
    23:00 +16°C° 0 mm 1 mps 767 mmHg 71%

    20 October, Saturday

    Time Temperature Precipitation Wind Pressure Humidity
    00:00 +16°C° 0 mm 1 mps 767 mmHg 72%
    01:00 +16°C° 0 mm 1 mps 767 mmHg 73%
    02:00 +16°C° 0 mm 1 mps 766 mmHg 74%
    03:00 +16°C° 0 mm 1 mps 766 mmHg 74%
    04:00 +16°C° 0 mm 1 mps 766 mmHg 74%
    05:00 +16°C° 0 mm 1 mps 766 mmHg 74%
    06:00 +18°C° 0 mm 1 mps 767 mmHg 73%
    07:00 +18°C° 0 mm 1 mps 767 mmHg 72%
    08:00 +19°C° 0 mm 1 mps 767 mmHg 71%
    09:00 +20°C° 0 mm 1 mps 767 mmHg 66%
    10:00 +20°C° 0 mm 2 mps 767 mmHg 61%
    11:00 +22°C° 0 mm 3 mps 766 mmHg 57%
    12:00 +22°C° 0 mm 3 mps 766 mmHg 55%
    13:00 +22°C° 0 mm 3 mps 765 mmHg 54%
    14:00 +24°C° 0 mm 3 mps 765 mmHg 53%
    15:00 +23°C° 0 mm 2 mps 764 mmHg 57%
    16:00 +21°C° 0 mm 2 mps 764 mmHg 61%
    17:00 +20°C° 0 mm 2 mps 764 mmHg 65%
    18:00 +19°C° 0 mm 2 mps 764 mmHg 68%
    19:00 +19°C° 0 mm 2 mps 765 mmHg 72%
    20:00 +18°C° 0 mm 2 mps 765 mmHg 75%
    21:00 +18°C° 0 mm 2 mps 765 mmHg 77%
    22:00 +19°C° 0 mm 1 mps 765 mmHg 80%
    23:00 +18°C° 0 mm 1 mps 765 mmHg 82%

    21 October, Sunday

    Time Temperature Precipitation Wind Pressure Humidity
    00:00 +18°C° 0 mm 1 mps 765 mmHg 85%
    01:00 +18°C° 0 mm 1 mps 764 mmHg 87%
    02:00 +16°C° 0 mm 1 mps 764 mmHg 90%
    03:00 +16°C° 0 mm 1 mps 764 mmHg 91%
    04:00 +18°C° 0 mm 1 mps 764 mmHg 92%
    05:00 +18°C° 0 mm 1 mps 764 mmHg 92%
    06:00 +18°C° 0.1 mm 1 mps 764 mmHg 90%
    07:00 +19°C° 0.1 mm 1 mps 764 mmHg 87%
    08:00 +19°C° 0.1 mm 2 mps 764 mmHg 85%
    09:00 +20°C° 0.1 mm 2 mps 764 mmHg 80%
    10:00 +21°C° 0.1 mm 3 mps 764 mmHg 75%
    11:00 +22°C° 0.1 mm 3 mps 764 mmHg 70%
    12:00 +22°C° 0.1 mm 3 mps 763 mmHg 70%
    13:00 +24°C° 0.1 mm 3 mps 763 mmHg 69%
    14:00 +24°C° 0.1 mm 3 mps 762 mmHg 69%
    15:00 +22°C° 0 mm 3 mps 762 mmHg 71%
    16:00 +21°C° 0 mm 3 mps 762 mmHg 73%
    17:00 +21°C° 0 mm 3 mps 762 mmHg 76%
    18:00 +20°C° 0 mm 2 mps 762 mmHg 77%
    19:00 +20°C° 0 mm 2 mps 763 mmHg 78%
    20:00 +20°C° 0 mm 2 mps 763 mmHg 80%
    21:00 +19°C° 0 mm 2 mps 763 mmHg 81%
    22:00 +19°C° 0 mm 2 mps 763 mmHg 82%
    23:00 +19°C° 0 mm 2 mps 763 mmHg 84%

    22 October, Monday

    Time Temperature Precipitation Wind Pressure Humidity
    00:00 +20°C° 0 mm 1 mps 762 mmHg 84%
    01:00 +20°C° 0 mm 1 mps 762 mmHg 85%
    02:00 +19°C° 0 mm 1 mps 762 mmHg 86%
    03:00 +19°C° 0 mm 1 mps 762 mmHg 86%
    04:00 +19°C° 0 mm 1 mps 762 mmHg 87%
    05:00 +19°C° 0 mm 1 mps 762 mmHg 87%
    06:00 +20°C° 0 mm 1 mps 762 mmHg 86%
    07:00 +20°C° 0 mm 1 mps 763 mmHg 84%
    08:00 +21°C° 0 mm 1 mps 763 mmHg 83%
    09:00 +22°C° 0 mm 1 mps 763 mmHg 80%
    10:00 +22°C° 0 mm 1 mps 763 mmHg 77%
    11:00 +23°C° 0 mm 1 mps 763 mmHg 74%
    12:00 +24°C° 0 mm 2 mps 762 mmHg 70%
    13:00 +25°C° 0 mm 2 mps 761 mmHg 66%
    14:00 +26°C° 0 mm 2 mps 761 mmHg 62%
    15:00 +25°C° 0 mm 2 mps 761 mmHg 66%
    16:00 +24°C° 0 mm 2 mps 761 mmHg 70%
    17:00 +23°C° 0 mm 2 mps 761 mmHg 74%
    18:00 +23°C° 0 mm 2 mps 762 mmHg 77%
    19:00 +21°C° 0 mm 2 mps 762 mmHg 79%
    20:00 +20°C° 0 mm 2 mps 762 mmHg 82%
    21:00 +20°C° 0 mm 2 mps 762 mmHg 83%
    22:00 +21°C° 0 mm 1 mps 762 mmHg 84%
    23:00 +20°C° 0 mm 1 mps 762 mmHg 85%
    Show more